TEVEL2-6

Last updated on Sun Jun 21 2026 00:03:20 GMT+0000 (Coordinated Universal Time)

1 63215U 25052F 26171.28000723 .00015976 00000+0 47994-3 0 9993 2 63215 97.3898 67.6078 0004759 99.4633 260.7149 15.34492782 70580
UTC large
Height (km)
Speed (km/s)
/
Latitude / Longitude
Inclination (degrees)
Orbital Period (minutes)
Azimuth
Elevation
Range (km)
Doppler Factor

Next 0 passes for location: London (51.5072 / 0.1276)

No passes found over London.
TEVEL2-6